Preview of NWS' New Version of Forecast
This preview is not operational and should not be used for support decisions.

Regional Weather Roundup (RWR)

Issued by Gray - Portland, ME (GYX)

                            
335 
ASUS41 KGYX 201610
RWRGYX
WEATHER ROUNDUP FOR MAINE AND NEW HAMPSHIRE
NATIONAL WEATHER SERVICE GRAY ME
1200 PM EDT SUN MAY 20 2018

MEZ002-005-006-010-012-015-018-020-021-024-026-027-029-201700-
MAINE
  
CITY           SKY/WX    TMP DP  RH WIND       PRES   REMARKS
PORTLAND       CLOUDY    71  64  78 VRB7      29.79S                  
SANFORD        PTSUNNY   72  65  78 SW10      29.81S                  
BAR HARBOR     LGT RAIN  58  57  97 SW7       29.79R                  
WISCASSET      PTSUNNY   66  61  84 VRB6      29.80S                  
ROCKLAND       CLOUDY    62  59  90 SW7       29.78S                  
FRYEBURG       CLOUDY    69  61  75 VRB7      29.80R                  
LEWISTONAUBURN CLOUDY    69  63  81 SW8       29.79R                  
AUGUSTA        CLOUDY    65  60  84 W6        29.80S                  
WATERVILLE     PTSUNNY   63  59  87 VRB3      29.77S                  
BANGOR         CLOUDY    62  58  86 W9        29.78S                  
GREENVILLE       N/A     57  56  96 NW10G20   29.76S                  
MILLINOCKET    LGT RAIN  56  53  90 VRB3      29.78R                  
HOULTON        CLOUDY    55  54  96 SW6       29.73S                  
PRESQUE ISLE   CLOUDY    60  52  74 W10G20    29.72F                  
FRENCHVILLE    CLOUDY    59  48  67 NW17G25   29.72R                  
CARIBOU        CLOUDY    62  51  67 W8G16     29.70F                  
$$

NHZ002-005-008-009-011-012-014-201700-
NEW HAMPSHIRE
  
CITY           SKY/WX    TMP DP  RH WIND       PRES   REMARKS
PORTSMOUTH     PTSUNNY   78  65  64 W12G20    29.79F                  
ROCHESTER      CLOUDY    71  66  84 MISG      29.81F                  
NASHUA         PTSUNNY   75  66  73 W10G20    29.84S                  
MANCHESTER     CLOUDY    76  63  64 SW12G18   29.82S                  
CONCORD        PTSUNNY   76  65  68 SW12G18   29.83S                  
LACONIA        LGT RAIN  67  63  87 VRB5      29.84R                  
PLYMOUTH       LGT RAIN  62  59  88 CALM      29.83S                  
BERLIN         LGT RAIN  63  59  87 VRB5      29.84R                  
WHITEFIELD     CLOUDY    64  60  87 W8        29.85R                  
JAFFREY        CLOUDY    69  65  86 SW8       29.88S                  
KEENE          LGT RAIN  69  65  86 SW3       29.87S                  
LEBANON        LGT RAIN  65  61  87 W3        29.85R                  
MT WASHINGTON  SHOWER    45  45 100 NW53        N/A  VSB 1/16         
$$

VTZ005-007-008-201700-
VERMONT
  
CITY           SKY/WX    TMP DP  RH WIND       PRES   REMARKS
ST JOHNSBURY     N/A     62  60  93 MISG      29.84R                  
MONTPELIER     PTSUNNY   61  59  93 NW9G20    29.92R                  
BURLINGTON     CLOUDY    62  56  80 N5        29.89S                  
$$

MAZ007-012-024-CTZ003-RIZ002-NYZ038-NYZ072-201700-
SOUTHERN NEW ENGLAND AND NY
  
CITY           SKY/WX    TMP DP  RH WIND       PRES   REMARKS
BOSTON         PTSUNNY   74  67  78 SW17G25   29.84F                  
WORCESTER      CLOUDY    70  64  81 SW14G24   29.88F                  
NANTUCKET      FOG       57  57 100 SW18      29.96F VSB 1/4          
PROVIDENCE     CLOUDY    72  66  81 SW15G21   29.90F                  
HARTFORD       PTSUNNY   78  65  63 SW15      29.88F                  
ALBANY         CLOUDY    69  64  84 S6        29.89R                  
NEW YORK CITY  PTSUNNY   78  66  66 W10       29.92F                  
$$

ANZ081-ANZ082-ANZ150-NHZ014-MEZ023>029-201700-
COASTAL MARINE OBSERVATIONS
  
STATION/POSITION TIME  TEMP    WIND        PRES    WAVE
                       AIR SEA DIR/SP/G            HT/PER
                 (UTC) (F)     (DEG/KT/KT) (MB)    (FT/S)
MOUNT DESERT ROC 1600   49     230/ 17/ 18 1008.9F
MATINICUS ROCK   1500   52     220/ 22/ 23 1008.4F
ISLE OF SHOALS   1500   65     230/ 11/ 13 1009.4F
JEFFREYS LEDGE   1536      49                N/A     4/ 5
CASHES LEDGE BUO 1550   54 49              1009.3    5/ 6
$$

.............KEY..............
   WCI - WIND CHILL
   TC  - TEMPERATURE IN CELSIUS
   VSB - VISIBILITY IN MILES
   HX  - HEAT INDEX
   FAIR- INDICATES FEW OR NO CLOUDS BELOW 12,000 FT, WITH NO 
         SIGNIFICANT WEATHER AND/OR OBSTRUCTIONS TO VISIBILITY.